H1 CPF 2 NER 2024 3 16 9 076 01 glonass146 H2 2216101 9146 54377 2024 3 16 0 0 0 2024 3 19 23 45 0 900 1 1 0 0 0 1 H9 10 0 60385 0.00000 0 -2878765.723 -16204091.141 -19472336.996 10 0 60385 900.00000 0 -1134483.946 -14412101.578 -21003149.442 10 0 60385 1800.00000 0 860773.291 -12647284.956 -22125560.960 10 0 60385 2700.00000 0 3069406.176 -10966997.915 -22817868.558 10 0 60385 3600.00000 0 5443518.583 -9421678.969 -23066743.296 10 0 60385 4500.00000 0 7926688.487 -8052846.774 -22867479.244 10 0 60385 5400.00000 0 10456102.591 -6891492.217 -22224074.721 10 0 60385 6300.00000 0 12964966.611 -5956930.204 -21149145.070 10 0 60385 7200.00000 0 15385091.307 -5256157.566 -19663669.353 10 0 60385 8100.00000 0 17649547.223 -4783742.227 -17796576.354 10 0 60385 9000.00000 0 19695278.383 -4522246.542 -15584178.199 10 0 60385 9900.00000 0 21465566.918 -4443165.503 -13069462.687 10 0 60385 10800.00000 0 22912246.868 -4508338.998 -10301258.030 10 0 60385 11700.00000 0 23997575.795 -4671777.680 -7333286.023 10 0 60385 12600.00000 0 24695687.044 -4881824.719 -4223121.859 10 0 60385 13500.00000 0 24993562.877 -5083561.833 -1031080.523 10 0 60385 14400.00000 0 24891488.651 -5221357.758 2180948.855 10 0 60385 15300.00000 0 24402969.682 -5241451.501 5350698.291 10 0 60385 16200.00000 0 23554114.871 -5094461.237 8416722.934 10 0 60385 17100.00000 0 22382513.186 -4737712.889 11319586.743 10 0 60385 18000.00000 0 20935650.219 -4137290.010 14003009.154 10 0 60385 18900.00000 0 19268931.027 -3269718.165 16414950.923 10 0 60385 19800.00000 0 17443391.664 -2123212.302 18508618.572 10 0 60385 20700.00000 0 15523194.690 -698433.722 20243368.426 10 0 60385 21600.00000 0 13573012.670 991276.390 21585493.232 10 0 60385 22500.00000 0 11655408.279 2920198.240 22508876.499 10 0 60385 23400.00000 0 9828319.660 5051058.722 22995502.145 10 0 60385 24300.00000 0 8142755.301 7336348.236 23035809.616 10 0 60385 25200.00000 0 6640794.048 9720076.151 22628887.366 10 0 60385 26100.00000 0 5353973.314 12139893.609 21782500.481 10 0 60385 27000.00000 0 4302132.544 14529496.961 20512951.128 10 0 60385 27900.00000 0 3492760.103 16821213.069 18844773.579 10 0 60385 28800.00000 0 2920870.972 18948659.635 16810268.645 10 0 60385 29700.00000 0 2569420.332 20849370.095 14448885.466 10 0 60385 30600.00000 0 2410235.648 22467273.531 11806461.678 10 0 60385 31500.00000 0 2405427.881 23754925.528 8934336.000 10 0 60385 32400.00000 0 2509221.971 24675395.990 5888350.096 10 0 60385 33300.00000 0 2670128.679 25203733.984 2727759.085 10 0 60385 34200.00000 0 2833365.077 25327947.325 -485927.671 10 0 60385 35100.00000 0 2943420.079 25049455.166 -3690152.205 10 0 60385 36000.00000 0 2946654.977 24382994.142 -6822535.516 10 0 60385 36900.00000 0 2793827.319 23355982.019 -9822101.976 10 0 60385 37800.00000 0 2442429.691 22007365.913 -12630475.536 10 0 60385 38700.00000 0 1858742.940 20386004.132 -15193023.395 10 0 60385 39600.00000 0 1019515.683 18548650.514 -17459924.014 10 0 60385 40500.00000 0 -86801.933 16557626.838 -19387138.196 10 0 60385 41400.00000 0 -1459323.100 14478281.832 -20937264.233 10 0 60385 42300.00000 0 -3084519.461 12376343.964 -22080260.686 10 0 60385 43200.00000 0 -4936555.488 10315279.182 -22794023.309 10 0 60385 44100.00000 0 -6978148.452 8353764.058 -23064805.695 10 0 60385 45000.00000 0 -9161918.198 6543379.437 -22887476.361 10 0 60385 45900.00000 0 -11432170.542 4926619.945 -22265608.203 10 0 60385 46800.00000 0 -13727040.132 3535301.158 -21211399.443 10 0 60385 47700.00000 0 -15980903.704 2389429.282 -19745428.285 10 0 60385 48600.00000 0 -18126963.616 1496578.751 -17896246.568 10 0 60385 49500.00000 0 -20099894.509 851801.836 -15699820.552 10 0 60385 50400.00000 0 -21838443.407 438072.221 -13198829.841 10 0 60385 51300.00000 0 -23287875.496 227242.186 -10441837.992 10 0 60385 52200.00000 0 -24402164.268 181471.792 -7482350.727 10 0 60385 53100.00000 0 -25145835.290 255068.735 -4377779.862 10 0 60385 54000.00000 0 -25495387.190 396660.556 -1188332.815 10 0 60385 54900.00000 0 -25440231.100 551607.031 2024151.008 10 0 60385 55800.00000 0 -24983109.679 664550.645 5197394.572 10 0 60385 56700.00000 0 -24139978.592 681997.290 8269885.380 10 0 60385 57600.00000 0 -22939355.556 554818.227 11182062.458 10 0 60385 58500.00000 0 -21421164.194 240567.568 13877465.408 10 0 60385 59400.00000 0 -19635120.881 -294482.595 16303823.677 10 0 60385 60300.00000 0 -17638731.586 -1073675.593 18414065.405 10 0 60385 61200.00000 0 -15494981.834 -2108742.897 20167226.758 10 0 60385 62100.00000 0 -13269815.474 -3399068.692 21529244.628 10 0 60385 63000.00000 0 -11029506.561 -4931478.481 22473617.752 10 0 60385 63900.00000 0 -8838033.066 -6680562.180 22981923.700 10 0 60385 64800.00000 0 -6754560.961 -8609519.982 23044181.752 10 0 60385 65700.00000 0 -4831142.728 -10671497.625 22659054.459 10 0 60385 66600.00000 0 -3110725.564 -12811357.226 21833883.472 10 0 60385 67500.00000 0 -1625551.840 -14967811.547 20584558.186 10 0 60385 68400.00000 0 -396018.212 -17075834.194 18935218.823 10 0 60385 69300.00000 0 569959.118 -19069246.195 16917798.592 10 0 60385 70200.00000 0 1277046.598 -20883371.622 14571412.753 10 0 60385 71100.00000 0 1742058.822 -22457651.412 11941605.438 10 0 60385 72000.00000 0 1993005.838 -23738105.697 9079468.153 10 0 60385 72900.00000 0 2067662.755 -24679540.831 6040646.651 10 0 60385 73800.00000 0 2011722.596 -25247407.644 2884255.456 10 0 60385 74700.00000 0 1876611.314 -25419231.855 -328278.455 10 0 60385 75600.00000 0 1717058.473 -25185555.572 -3534419.579 10 0 60385 76500.00000 0 1588527.813 -24550349.530 -6671751.002 10 0 60385 77400.00000 0 1544617.985 -23530878.216 -9679199.587 10 0 60385 78300.00000 0 1634545.093 -22157023.466 -12498234.196 10 0 60385 79200.00000 0 1900815.121 -20470095.131 -15074012.546 10 0 60385 80100.00000 0 2377186.067 -18521179.338 -17356453.506 10 0 60385 81000.00000 0 3087007.037 -16369094.315 -19301213.444 10 0 60385 81900.00000 0 4042005.294 -14078040.235 -20870547.493 10 0 60385 82800.00000 0 5241573.000 -11715042.098 -22034039.195 10 0 60385 83700.00000 0 6672584.065 -9347293.017 -22769184.854 10 0 60385 84600.00000 0 8309749.046 -7039508.899 -23061822.033 10 0 60385 85500.00000 0 10116493.349 -4851404.611 -22906394.763 10 0 60386 0.00000 0 12046321.872 -2835396.246 -22306051.290 10 0 60386 900.00000 0 14044614.210 -1034623.029 -21272572.948 10 0 60386 1800.00000 0 16050772.972 518627.522 -19826137.113 10 0 60386 2700.00000 0 18000639.199 1804030.938 -17994918.294 10 0 60386 3600.00000 0 19829071.844 2813826.453 -15814536.112 10 0 60386 4500.00000 0 21472585.081 3552884.989 -13327360.775 10 0 60386 5400.00000 0 22871933.608 4038243.355 -10581689.520 10 0 60386 6300.00000 0 23974538.494 4298125.955 -7630809.875 10 0 60386 7200.00000 0 24736652.671 4370496.544 -4531967.715 10 0 60386 8100.00000 0 25125175.977 4301202.164 -1345259.954 10 0 60386 9000.00000 0 25119044.262 4141788.260 1867526.955 10 0 60386 9900.00000 0 24710134.666 3947077.663 5044110.312 10 0 60386 10800.00000 0 23903649.388 3772615.895 8122913.428 10 0 60386 11700.00000 0 22717961.872 3672090.727 11044253.792 10 0 60386 12600.00000 0 21183931.663 3694834.946 13751494.426 10 0 60386 13500.00000 0 19343716.240 3883517.718 16192136.515 10 0 60386 14400.00000 0 17249128.880 4272122.021 18318832.610 10 0 60386 15300.00000 0 14959610.409 4884293.706 20090301.212 10 0 60386 16200.00000 0 12539898.507 5732132.230 21472125.536 10 0 60386 17100.00000 0 10057490.725 6815474.834 22437421.374 10 0 60386 18000.00000 0 7580005.791 8121705.425 22967361.375 10 0 60386 18900.00000 0 5172552.022 9626097.720 23051545.665 10 0 60386 19800.00000 0 2895211.321 11292680.023 22688211.422 10 0 60386 20700.00000 0 800742.692 13075587.252 21884276.873 10 0 60386 21600.00000 0 -1067399.831 14920845.466 20655218.153 10 0 60386 22500.00000 0 -2676652.728 16768515.875 19024780.423 10 0 60386 23400.00000 0 -4006466.210 18555109.919 17024527.805 10 0 60386 24300.00000 0 -5048918.396 20216175.201 14693239.779 10 0 60386 25200.00000 0 -5808794.957 21688944.382 12076164.717 10 0 60386 26100.00000 0 -6303131.133 22914935.837 9224144.368 10 0 60386 27000.00000 0 -6560235.741 23842396.411 6192625.808 10 0 60386 27900.00000 0 -6618238.857 24428482.755 3040580.034 10 0 60386 28800.00000 0 -6523225.256 24641088.393 -170651.405 10 0 60386 29700.00000 0 -6327033.541 24460238.483 -3378558.564 10 0 60386 30600.00000 0 -6084815.337 23878992.475 -6520689.689 10 0 60386 31500.00000 0 -5852459.311 22903815.801 -9535877.112 10 0 60386 32400.00000 0 -5683990.609 21554404.384 -12365437.416 10 0 60386 33300.00000 0 -5629057.295 19862969.140 -14954321.437 10 0 60386 34200.00000 0 -5730611.493 17873010.608 -17252190.780 10 0 60386 35100.00000 0 -6022884.413 15637635.528 -19214399.424 10 0 60386 36000.00000 0 -6529741.647 13217486.344 -20802861.114 10 0 60386 36900.00000 0 -7263488.697 10678370.856 -21986785.845 10 0 60386 37800.00000 0 -8224177.350 8088691.414 -22743271.651 10 0 60386 38700.00000 0 -9399442.202 5516781.066 -23057740.932 10 0 60386 39600.00000 0 -10764874.147 3028257.551 -22924213.752 10 0 60386 40500.00000 0 -12284915.073 683504.727 -22345413.701 10 0 60386 41400.00000 0 -13914236.184 -1464614.713 -21332705.162 10 0 60386 42300.00000 0 -15599542.192 -3372721.357 -19905863.895 10 0 60386 43200.00000 0 -17281725.934 -5008475.999 -18092685.937 10 0 60386 44100.00000 0 -18898283.472 -6351668.389 -15928442.737 10 0 60386 45000.00000 0 -20385888.867 -7394794.353 -13455193.226 10 0 60386 45900.00000 0 -21683021.255 -8143099.193 -10720966.182 10 0 60386 46800.00000 0 -22732534.680 -8614087.455 -7778828.585 10 0 60386 47700.00000 0 -23484063.414 -8836521.282 -4685857.872 10 0 60386 48600.00000 0 -23896162.445 -8848950.866 -1502037.834 10 0 60386 49500.00000 0 -23938093.655 -8697839.911 1710900.723 10 0 60386 50400.00000 0 -23591183.083 -8435365.827 4890672.219 10 0 60386 51300.00000 0 -22849692.367 -8116987.874 7975638.590 10 0 60386 52200.00000 0 -21721167.774 -7798886.039 10905998.625 10 0 60386 53100.00000 0 -20226251.845 -7535378.741 13624941.557 10 0 60386 54000.00000 0 -18397965.034 -7376428.217 16079742.978 10 0 60386 54900.00000 0 -16280486.593 -7365338.740 18222782.307 10 0 60386 55800.00000 0 -13927484.728 -7536744.682 20012462.557 10 0 60386 56700.00000 0 -11400064.546 -7914973.370 21414015.079 10 0 60386 57600.00000 0 -8764418.094 -8512852.102 22400174.116 10 0 60386 58500.00000 0 -6089273.044 -9331010.246 22951708.374 10 0 60386 59400.00000 0 -3443244.900 -10357706.850 23057799.360 10 0 60386 60300.00000 0 -892201.610 -11569192.358 22716259.014 10 0 60386 61200.00000 0 1503250.835 -12930590.854 21933581.921 10 0 60386 62100.00000 0 3690058.102 -14397267.462 20724830.392 10 0 60386 63000.00000 0 5624687.882 -15916625.198 19113353.678 10 0 60386 63900.00000 0 7274699.196 -17430257.265 17130345.682 10 0 60386 64800.00000 0 8619845.487 -18876365.540 14814248.690 10 0 60386 65700.00000 0 9652665.559 -20192344.344 12210013.639 10 0 60386 66600.00000 0 10378537.818 -21317421.027 9368230.574 10 0 60386 67500.00000 0 10815195.813 -22195241.982 6344145.709 10 0 60386 68400.00000 0 10991725.952 -22776294.461 3196584.122 10 0 60386 69300.00000 0 10947090.262 -23020061.106 -13200.607 10 0 60386 70200.00000 0 10728237.525 -22896815.118 -3222726.733 10 0 60386 71100.00000 0 10387883.752 -22388979.129 -6369510.348 10 0 60386 72000.00000 0 9982057.257 -21491989.321 -9392291.939 10 0 60386 72900.00000 0 9567513.649 -20214627.429 -12232238.475 10 0 60386 73800.00000 0 9199131.631 -18578806.043 -14834096.480 10 0 60386 74700.00000 0 8927401.087 -16618815.901 -17147272.770 10 0 60386 75600.00000 0 8796110.832 -14380066.760 -19126821.231 10 0 60386 76500.00000 0 8840334.509 -11917374.813 -20734316.281 10 0 60386 77400.00000 0 9084800.184 -9292868.626 -21938596.148 10 0 60386 78300.00000 0 9542712.570 -6573601.370 -22716362.028 10 0 60386 79200.00000 0 10215077.388 -3828969.058 -23052622.236 10 0 60386 80100.00000 0 11090556.065 -1128042.281 -22940973.567 10 0 60386 81000.00000 0 12145856.486 1463077.957 -22383715.374 10 0 60386 81900.00000 0 13346643.051 3883771.130 -21391794.983 10 0 60386 82800.00000 0 14648927.510 6081171.502 -19984586.259 10 0 60386 83700.00000 0 16000882.046 8012112.726 -18189506.140 10 0 60386 84600.00000 0 17344998.546 9644663.528 -16041476.947 10 0 60386 85500.00000 0 18620503.517 10959192.354 -13582245.060 10 0 60387 0.00000 0 19765927.526 11948918.406 -10859569.412 10 0 60387 900.00000 0 20721722.200 12619928.488 -7926293.952 10 0 60387 1800.00000 0 21432813.795 12990659.433 -4839325.586 10 0 60387 2700.00000 0 21850988.486 13090871.170 -1658532.359 10 0 60387 3600.00000 0 21937007.920 12960153.458 1554413.422 10 0 60387 4500.00000 0 21662366.990 12646030.631 4737226.275 10 0 60387 5400.00000 0 21010619.927 12201744.717 7828209.797 10 0 60387 6300.00000 0 19978218.853 11683810.660 10767447.073 10 0 60387 7200.00000 0 18574829.228 11149446.792 13497956.436 10 0 60387 8100.00000 0 16823108.324 10653988.782 15966790.626 10 0 60387 9000.00000 0 14757955.113 10248395.848 18126058.490 10 0 60387 9900.00000 0 12425261.799 9976954.107 19933849.888 10 0 60387 10800.00000 0 9880217.852 9875273.659 21355046.405 10 0 60387 11700.00000 0 7185235.754 9968663.743 22362002.559 10 0 60387 12600.00000 0 4407583.391 10270954.652 22935084.604 10 0 60387 13500.00000 0 1616820.026 10783816.505 23063056.553 10 0 60387 14400.00000 0 -1117858.919 11496604.424 22743305.796 10 0 60387 15300.00000 0 -3730259.189 12386737.763 21981903.482 10 0 60387 16200.00000 0 -6159698.523 13420598.812 20793497.794 10 0 60387 17100.00000 0 -8353287.361 14554914.602 19201041.240 10 0 60387 18000.00000 0 -10267884.981 15738565.071 17235356.182 10 0 60387 18900.00000 0 -11871649.846 16914742.645 14934545.943 10 0 60387 19800.00000 0 -13145119.624 18023373.147 12343261.878 10 0 60387 20700.00000 0 -14081775.743 19003696.385 9511839.901 10 0 60387 21600.00000 0 -14688069.001 19796897.548 6495322.723 10 0 60387 22500.00000 0 -14982905.431 20348677.821 3352386.711 10 0 60387 23400.00000 0 -14996614.522 20611654.762 144194.589 10 0 60387 24300.00000 0 -14769444.072 20547489.850 -3066803.042 10 0 60387 25200.00000 0 -14349646.173 20128652.012 -6218093.074 10 0 60387 26100.00000 0 -13791236.473 19339741.310 -9248327.079 10 0 60387 27000.00000 0 -13151522.790 18178315.733 -12098525.232 10 0 60387 27900.00000 0 -12488509.026 16655185.264 -14713232.424 10 0 60387 28800.00000 0 -11858285.467 14794160.172 -17041603.127 10 0 60387 29700.00000 0 -11312516.912 12631263.702 -19038393.321 10 0 60387 30600.00000 0 -10896135.527 10213442.042 -20664839.984 10 0 60387 31500.00000 0 -10645336.304 7596825.637 -21889411.137 10 0 60387 32400.00000 0 -10585959.749 4844614.629 -22688412.371 10 0 60387 33300.00000 0 -10732329.703 2024676.664 -23046438.783 10 0 60387 34200.00000 0 -11086594.762 -793042.884 -22956664.408 10 0 60387 35100.00000 0 -11638600.317 -3539190.842 -22420964.460 10 0 60387 36000.00000 0 -12366295.907 -6147645.961 -21449868.906 10 0 60387 36900.00000 0 -13236660.086 -8558019.574 -20062348.979 10 0 60387 37800.00000 0 -14207103.383 -10717914.510 -18285441.380 10 0 60387 38700.00000 0 -15227290.021 -12584849.811 -16153717.797 10 0 60387 39600.00000 0 -16241301.654 -14127772.797 -13708610.215 10 0 60387 40500.00000 0 -17190052.135 -15328097.254 -10997605.135 10 0 60387 41400.00000 0 -18013851.932 -16180226.247 -8073322.178 10 0 60387 42300.00000 0 -18655014.534 -16691539.433 -4992494.841 10 0 60387 43200.00000 0 -19060395.487 -16881846.991 -1814872.907 10 0 60387 44100.00000 0 -19183757.439 -16782334.461 1397932.402 10 0 60387 45000.00000 0 -18987861.873 -16434043.870 4583638.364 10 0 60387 45900.00000 0 -18446199.519 -15885955.791 7680492.949 10 0 60387 46800.00000 0 -17544286.559 -15192753.510 10628466.268 10 0 60387 47700.00000 0 -16280471.735 -14412363.590 13370408.468 10 0 60387 48600.00000 0 -14666219.842 -13603376.321 15853152.057 10 0 60387 49500.00000 0 -12725858.748 -12822454.423 18028537.755 10 0 60387 50400.00000 0 -10495799.378 -12121838.712 19854344.474 10 0 60387 51300.00000 0 -8023259.776 -11547055.332 21295105.908 10 0 60387 52200.00000 0 -5364544.886 -11134920.700 22322798.361 10 0 60387 53100.00000 0 -2582952.047 -10911927.941 22917386.738 10 0 60387 54000.00000 0 253612.381 -10893082.763 23067218.256 10 0 60387 54900.00000 0 3075207.792 -11081238.075 22769256.062 10 0 60387 55800.00000 0 5812519.945 -11466956.003 22029147.815 10 0 60387 56700.00000 0 8399498.075 -12028903.997 20861127.177 10 0 60387 57600.00000 0 10775859.821 -12734769.424 19287749.211 10 0 60387 58500.00000 0 12889360.338 -13542655.261 17339463.726 10 0 60387 59400.00000 0 14697731.414 -14402899.093 15054033.763 10 0 60387 60300.00000 0 16170209.832 -15260239.549 12475809.461 10 0 60387 61200.00000 0 17288591.054 -16056239.191 9654870.626 10 0 60387 62100.00000 0 18047764.069 -16731861.595 6646054.160 10 0 60387 63000.00000 0 18455705.055 -17230093.334 3507885.132 10 0 60387 63900.00000 0 18532930.303 -17498499.180 301432.579 10 0 60387 64800.00000 0 18311431.967 -17491601.326 -2910887.022 10 0 60387 65700.00000 0 17833142.267 -17172980.644 -6066534.405 10 0 60387 66600.00000 0 17147991.977 -16517009.687 -9104075.226 10 0 60387 67500.00000 0 16311646.445 -15510142.825 -11964385.764 10 0 60387 68400.00000 0 15383016.088 -14151707.833 -14591812.006 10 0 60387 69300.00000 0 14421647.824 -12454164.562 -16935258.592 10 0 60387 70200.00000 0 13485108.757 -10442819.113 -18949185.853 10 0 60387 71100.00000 0 12626473.355 -8155005.029 -20594495.289 10 0 60387 72000.00000 0 11892020.656 -5638765.637 -21839286.342 10 0 60387 72900.00000 0 11319238.595 -2951092.532 -22659470.256 10 0 60387 73800.00000 0 10935219.220 -155793.688 -23039229.779 10 0 60387 74700.00000 0 10755511.689 2678920.030 -22971316.656 10 0 60387 75600.00000 0 10783480.374 5483029.783 -22457182.060 10 0 60387 76500.00000 0 11010194.048 8187377.650 -21506938.312 10 0 60387 77400.00000 0 11414849.731 10726299.308 -20139153.409 10 0 60387 78300.00000 0 11965712.410 13040112.062 -18380482.887 10 0 60387 79200.00000 0 12621530.305 15077356.046 -16265146.564 10 0 60387 80100.00000 0 13333365.526 16796696.750 -13834260.509 10 0 60387 81000.00000 0 14046762.736 18168411.223 -11135037.206 10 0 60387 81900.00000 0 14704164.336 19175397.585 -8219869.344 10 0 60387 82800.00000 0 15247470.464 19813667.318 -5145314.842 10 0 60387 83700.00000 0 15620636.085 20092301.229 -1971002.606 10 0 60387 84600.00000 0 15772195.884 20032872.309 1241520.023 10 0 60387 85500.00000 0 15657610.715 19668360.801 4429975.959 10 0 60388 0.00000 0 15241336.851 19041607.917 7532560.156 10 0 60388 900.00000 0 14498530.494 18203373.373 10489133.131 10 0 60388 1800.00000 0 13416316.107 17210079.501 13242379.256 10 0 60388 2700.00000 0 11994563.914 16121335.675 15738913.332 10 0 60388 3600.00000 0 10246143.496 14997347.620 17930310.293 10 0 60388 4500.00000 0 8196641.478 13896319.826 19774040.224 10 0 60388 5400.00000 0 5883553.682 12871959.719 21234290.828 10 0 60388 6300.00000 0 3354983.749 11971187.929 22282661.820 10 0 60388 7200.00000 0 667900.718 11232150.377 22898718.095 10 0 60388 8100.00000 0 -2113973.798 10682615.365 23070391.056 10 0 60388 9000.00000 0 -4922562.753 10338822.916 22794220.191 10 0 60388 9900.00000 0 -7688017.126 10204834.893 22075429.797 10 0 60388 10800.00000 0 -10341379.724 10272413.601 20927838.653 10 0 60388 11700.00000 0 -12817219.711 10521434.645 19373603.506 10 0 60388 12600.00000 0 -15056128.969 10920817.369 17442800.244 10 0 60388 13500.00000 0 -17006976.749 11429934.472 15172849.811 10 0 60388 14400.00000 0 -18628828.688 12000441.960 12607798.922 10 0 60388 15300.00000 0 -19892449.902 12578452.604 9797468.784 10 0 60388 16200.00000 0 -20781329.023 13106961.126 6796487.799 10 0 60388 17100.00000 0 -21292180.087 13528418.223 3663226.906 10 0 60388 18000.00000 0 -21434901.066 13787343.783 458658.575 10 0 60388 18900.00000 0 -21231991.000 13832867.602 -2754837.752 10 0 60388 19800.00000 0 -20717450.699 13621088.684 -5914699.545 10 0 60388 20700.00000 0 -19935214.109 13117151.779 -8959409.409 10 0 60388 21600.00000 0 -18937177.538 12296951.843 -11829702.509 10 0 60388 22500.00000 0 -17780911.057 11148392.954 -14469728.565 10 0 60388 23400.00000 0 -16527149.894 9672147.386 -16828144.828 10 0 60388 24300.00000 0 -15237172.748 7881881.869 -18859118.144 10 0 60388 25200.00000 0 -13970178.448 5803940.824 -20523216.353 10 0 60388 26100.00000 0 -12780772.053 3476499.409 -21788171.762 10 0 60388 27000.00000 0 -11716666.339 948221.541 -22629502.300 10 0 60388 27900.00000 0 -10816695.086 -1723521.221 -23030978.978 10 0 60388 28800.00000 0 -10109220.987 -4474795.751 -22984931.432 10 0 60388 29700.00000 0 -9611004.021 -7237529.261 -22492386.551 10 0 60388 30600.00000 0 -9326576.570 -9942106.632 -21563038.376 10 0 60388 31500.00000 0 -9248150.120 -12520035.707 -20215050.627 10 0 60388 32400.00000 0 -9356056.105 -14906570.532 -18474696.293 10 0 60388 33300.00000 0 -9619701.074 -17043184.469 -16375841.639 10 0 60388 34200.00000 0 -9998994.964 -18879791.440 -13959284.886 10 0 60388 35100.00000 0 -10446191.544 -20376624.125 -11271962.410 10 0 60388 36000.00000 0 -10908062.961 -21505692.206 -8366037.751 10 0 60388 36900.00000 0 -11328316.452 -22251761.201 -5297890.991 10 0 60388 37800.00000 0 -11650151.195 -22612812.304 -2127027.869 10 0 60388 38700.00000 0 -11818847.480 -22599965.236 1085070.456 10 0 60388 39600.00000 0 -11784279.040 -22236868.383 4276134.851 10 0 60388 40500.00000 0 -11503242.628 -21558582.603 7384310.139 10 0 60388 41400.00000 0 -10941506.548 -20610006.107 10349348.485 10 0 60388 42300.00000 0 -10075491.603 -19443906.809 13113771.407 10 0 60388 43200.00000 0 -8893513.197 -18118644.764 15623978.314 10 0 60388 44100.00000 0 -7396531.614 -16695680.030 17831280.558 10 0 60388 45000.00000 0 -5598377.861 -15236970.103 19692841.435 10 0 60388 45900.00000 0 -3525444.202 -13802365.508 21172504.454 10 0 60388 46800.00000 0 -1215850.636 -12447112.064 22241494.250 10 0 60388 47700.00000 0 1281879.776 -11219563.891 22878976.885 10 0 60388 48600.00000 0 3910583.459 -10159202.442 23072468.785 10 0 60388 49500.00000 0 6606585.374 -9295044.168 22818086.271 10 0 60388 50400.00000 0 9302107.794 -8644503.393 22120630.424 10 0 60388 51300.00000 0 11927860.225 -8212758.091 20993504.979 10 0 60388 52200.00000 0 14415704.067 -7992645.416 19458467.883 10 0 60388 53100.00000 0 16701281.961 -7965091.748 17545220.319 10 0 60388 54000.00000 0 18726502.824 -8100059.569 15290840.021 10 0 60388 54900.00000 0 20441779.068 -8357971.681 12739068.834 10 0 60388 55800.00000 0 21807922.325 -8691552.894 9939467.554 10 0 60388 56700.00000 0 22797618.033 -9048011.412 6946453.898 10 0 60388 57600.00000 0 23396416.633 -9371467.303 3818242.153 10 0 60388 58500.00000 0 23603199.381 -9605524.599 615705.375 10 0 60388 59400.00000 0 23430099.022 -9695877.083 -2598817.084 10 0 60388 60300.00000 0 22901878.733 -9592836.068 -5762742.613 10 0 60388 61200.00000 0 22054795.900 -9253671.626 -8814473.945 10 0 60388 62100.00000 0 20934999.314 -8644666.606 -11694608.202 10 0 60388 63000.00000 0 19596528.265 -7742795.043 -14347101.720 10 0 60388 63900.00000 0 18098998.964 -6536952.711 -16720366.984 10 0 60388 64800.00000 0 16505076.806 -5028686.759 -18768279.679 10 0 60388 65700.00000 0 14877841.812 -3232392.819 -20451076.003 10 0 60388 66600.00000 0 13278158.736 -1174970.657 -21736122.797 10 0 60388 67500.00000 0 11762162.626 1105047.632 -22598545.985 10 0 60388 68400.00000 0 10378965.252 3558860.721 -23021705.770 10 0 60388 69300.00000 0 9168678.036 6129195.674 -22997510.226 10 0 60388 70200.00000 0 8160833.378 8752465.387 -22526562.106 10 0 60388 71100.00000 0 7373269.184 11361196.265 -21618136.924 10 0 60388 72000.00000 0 6811521.815 13886625.504 -20289993.512 10 0 60388 72900.00000 0 6468751.225 16261360.517 -18568021.328 10 0 60388 73800.00000 0 6326199.778 18421990.622 -16485731.766 10 0 60388 74700.00000 0 6354163.982 20311543.182 -14083603.547 10 0 60388 75600.00000 0 6513436.973 21881682.944 -11408294.970 10 0 60388 76500.00000 0 6757160.066 23094564.038 -8511738.170 10 0 60388 77400.00000 0 7033004.640 23924258.455 -5450132.870 10 0 60388 78300.00000 0 7285591.922 24357702.503 -2282858.893 10 0 60388 79200.00000 0 7459048.368 24395122.663 928671.670 10 0 60388 80100.00000 0 7499588.717 24049923.954 4122200.610 10 0 60388 81000.00000 0 7358017.697 23348046.193 7235825.306 10 0 60388 81900.00000 0 6992044.775 22326815.632 10209193.002 10 0 60388 82800.00000 0 6368314.217 21033340.363 12984664.813 10 0 60388 83700.00000 0 5464064.542 19522516.745 15508427.295 10 0 60388 84600.00000 0 4268346.958 17854730.132 17731530.549 10 0 60388 85500.00000 0 2782750.612 16093345.781 19610833.178 99